SCP
0 0 0 0 0 0 0 0 0 0 0 0 0 0 0 0 0 0 0 0 0 0 0 0 0 0 0 0 0 0 0 0 0 0 0 0 0 0 0 0 0 0 0
0 0 0 0 0 0 0 0 0 0 0 0 0 0 0 0 0 0 0 0 0 0 0 0 0 0 0 0 0 0 0 0 0 0 0 0 0 0 0 0 0 0 0
0 0 0 0 0 0 0 0 0 0 0 0 0 0 0 0 0 0 0 0 0 0 0 0 0 0 0 0 0 0 0 0 0 0 0 0 0 0 0 -0 -0 0 0
0 0 0 0 0 0 0 0 0 0 0 0 0 0 0 0 0 0 0 0 0 0 0 0 0 0 0 0 0 0 0 0 0 0 0 0 0 0 -0 -0 -0 -0 0
0 0 0 0 0 0 0 0 0 0 0 0 0 0 0 0 0 0 0 0 0 0 0 0 0 0 0 0 0 0 0 0 0 0 0 0 -0 -0 -0 -0 -0 0 -0
0 0 0 0 0 0 0 0 0 0 0 0 0 0 0 0 0 0 0 0 0 0 0 0 0 0 0 0 0 0 0 0 0 0 0 0 0 0 0 -0 -0 -0 -0
0 0 0 0 0 0 0 0 0 0 0 0 0 0 0 0 0 0 0 0 0 0 0 0 0 0 0 0 0 0 0 0 0 0 0 0 0 0 0 0 0 0 0
0 0 0 0 0 0 0 0 0 0 0 0 0 0 0 0 0 0 0 0 0 0 0 0 0 0 0 0 0 0 0 0 0 0 0 0 0 0 0 0 0 0 0
0 0 0 0 0 0 0 0 0 0 0 0 0 0 0 0 0 0 0 0 0 0 0 0 0 0 0 0 0 0 -0 -0 0 0 0 0 0 0 0 0 0 0 0
0 0 0 0 0 0 0 0 0 0 0 0 0 0 0 0 0 0 0 0 0 0 0 0 0 0 0 0 0 0 -0 -0 0 0 0 0 0 0 0 0 0 0 0
0 0 0 0 0 0 0 0 0 0 0 0 0 0 0 0 0 0 0 0 0 0 0 0 0 0 0 0 0 0 -0 0 0 0 0 0 0 0 0 0 0 0 0
0 0 0 0 0 0 0 0 0 0 0 0 0 0 0 0 0 0 0 0 0 0 0 0 0 0 0 0 0 0 0 0 0 0 -0 -0 -0 0 0 0 0 0 0
0 0 0 0 0 0 0 0 0 0 0 0 0 0 0 0 0 0 0 0 0 0 0 0 0 0 0 0 0 0 0 -0 -0 -0 -0 -0 -0 0 0 0 0 0 0
0 0 0 0 0 0 0 0 0 0 0 0 0 0 0 0 0 0 0 0 0 0 0 0 0 0 0 0 0 -0 -0 -0 -0 -0 -0 -0 0 0 0 0 0 0 0
0 0 0 0 0 0 0 0 0 0 0 0 0 0 0 0 0 0 0 0 0 0 0 0 0 0 0 0 0 -0 0 0 -0 -0 -0 -0 0 0 0 0 0 0 0
0 0 -0 0 0 0 0 0 0 0 0 0 0 0 0 0 0 0 0 0 0 0 0 0 0 0 0 0 0 0 -0 0 0 -0 -0 -0 0 0 0 0 0 0 0
0 0 -0 0 0 0 0 0 0 0 0 0 0 0 0 0 0 0 0 0 0 0 0 0 0 0 0 0 -0 0 0 0 -0 -0 -0 -0 0 0 0 0 0 0 0
0 -0 -0 -0 -0 -0 -0 0 0 0 0 0 0 0 0 0 0 0 0 0 0 0 0 -0 0 0 -0 -0 -0 0 0 0 0 0 0 0 0 0 0 0 0 0 0
0 0 -0 -0 -0 -0 -0 -0 0 0 0 0 0 0 0 0 0 0 0 0 0 0 0 0 0 0 -0 -0 0 0 0 0 0 0 0 0 0 0 0 0 0 0 0
0 0 0 0 0 0 0 -0 -0 0 0 0 0 0 0 0 0 0 0 0 0 0 0 0 -0 -0 -0 -0 0 0 0 0 0 0 0 0 0 0 0 0 0 0 0
0 0 0 0 0 0 0 -0 0 0 0 0 0 0 0 0 0 0 0 0 0 0 0 0 0 -0 -0 -0 -0 0 0 0 0 0 0 0 0 0 0 0 0 -0 0
0 0 0 0 0 0 0 0 0 0 0 0 0 0 0 0 0 0 0 0 0 0 0 0 0 0 -0 -0 -0 -0 -0 -0 0 0 0 0 0 0 0 0 -0 0 -0
0 0 0 0 0 0 0 0 0 0 0 0 0 0 0 0 0 0 0 0 0 0 0 0 0 0 -0 -0 -0 -0 -0 -0 0 -0 0 0 0 -0 0 0 0 0 -0
0 0 0 0 0 0 0 0 0 0 0 0 0 0 0 0 0 0 0 0 0 0 0 0 0 0 -0 -0 -0 -0 -0 -0 -0 -0 -0 -0 -0 -0 -0 0 0 -0 -0
0 0 0 0 0 0 0 0 0 0 0 0 0 0 0 0 0 0 0 0 0 0 0 0 0 0 0 -0 -0 0 -0 -0 -0 -0 -0 -0 -0 -0 -0 -0 0 0 -0
0 0 0 0 0 0 0 0 0 0 0 0 0 0 0 0 0 0 0 0 0 0 0 0 0 0 0 -0 -0 0 0 0 -0 -0 -0 -0 -0 -0 -0 -0 0 0 0
Wind_Speed_500mb
69 66 63 59 47 47 42 38 38 34 27 26 25 23 23 16 10 9 11 13 17 22 27 32 34 38 38 35 35 34 42 43 52 65 62 58 51 55 56 60 64 64 59
74 65 62 56 46 44 44 42 36 36 32 33 27 25 18 13 11 12 15 19 23 30 35 39 39 41 39 35 33 39 42 47 55 59 59 55 55 57 61 68 68 67 65
74 68 56 48 51 50 48 44 39 40 36 29 25 20 14 13 14 17 20 26 33 35 37 37 35 35 35 35 38 42 47 50 53 40 54 56 59 63 74 73 77 77 79
65 60 52 53 53 51 49 47 42 35 30 25 19 13 12 13 16 21 27 32 30 30 29 27 25 30 35 39 42 49 51 48 38 40 49 57 64 70 74 83 93 91 93
65 66 70 67 63 57 50 44 37 30 22 17 14 11 10 15 22 25 24 27 28 25 23 23 26 28 34 41 48 54 45 38 42 46 51 59 65 72 76 81 86 98 100
82 82 76 69 60 53 46 38 30 23 20 14 9 8 15 18 19 21 25 27 27 28 28 24 27 30 36 42 39 38 31 33 43 49 52 55 63 63 74 81 84 90 99
84 79 72 63 55 46 38 33 26 21 14 8 4 8 14 19 21 22 23 25 30 34 32 27 24 30 33 33 28 22 18 24 29 40 50 53 60 61 78 85 84 81 83
80 72 62 54 47 40 34 26 19 13 8 5 8 15 20 19 21 21 22 23 29 31 27 26 29 29 29 25 24 22 26 31 35 40 46 49 48 63 71 78 78 78 80
70 62 52 42 38 32 27 23 19 16 18 16 17 21 22 25 25 22 19 20 20 19 19 22 22 25 27 30 32 36 39 44 44 42 36 36 52 59 62 65 63 64 73
62 52 42 35 34 33 29 27 30 25 22 17 17 25 33 33 30 29 26 25 23 25 25 24 24 22 21 30 35 42 47 48 50 46 37 45 57 58 52 49 53 56 57
53 48 43 38 35 33 34 34 30 27 18 16 19 29 37 39 38 32 28 26 24 25 25 26 25 23 21 23 31 38 39 47 46 42 43 57 66 61 55 50 46 46 51
50 50 45 40 36 28 22 29 21 22 16 15 18 27 27 28 29 32 34 30 25 22 24 23 22 21 18 22 30 32 40 48 50 55 48 62 71 68 60 59 56 50 46
52 49 41 33 26 23 23 25 22 19 17 13 16 23 28 30 26 25 23 21 20 25 20 19 20 21 22 24 32 38 50 56 58 60 62 58 66 69 67 68 63 64 58
54 47 38 36 37 35 30 24 23 21 19 22 24 28 30 32 35 29 28 27 26 25 22 23 23 27 35 40 40 49 57 60 61 60 66 55 64 75 73 74 77 75 66
49 47 45 42 40 44 45 41 35 36 29 28 31 31 31 34 36 34 29 29 31 29 24 30 36 42 51 57 54 57 61 63 64 66 67 69 68 73 78 83 82 76 73
48 44 41 42 43 41 41 46 43 39 39 41 41 34 31 26 20 22 27 21 21 25 31 43 44 46 55 62 65 64 65 66 67 68 71 74 76 72 82 86 86 82 79
43 41 38 37 38 39 39 39 43 38 35 36 36 36 36 27 23 21 26 22 19 22 37 44 46 46 52 60 65 66 68 66 65 68 71 76 80 75 80 88 89 88 86
43 37 31 34 36 35 31 34 35 34 32 33 31 29 32 27 23 21 25 22 22 31 39 44 48 45 51 58 65 67 67 68 68 71 72 76 80 81 83 87 89 90 93
41 38 34 34 31 27 26 28 30 32 30 26 23 24 24 24 20 21 23 32 32 32 36 41 46 45 50 56 63 64 66 69 69 71 73 77 80 80 84 85 87 90 91
34 31 28 27 29 27 25 27 27 27 28 24 20 21 17 19 25 26 23 27 30 30 33 40 46 47 51 56 62 64 65 70 73 73 75 76 78 78 81 86 85 92 94
37 33 28 25 24 24 22 23 23 24 25 22 19 16 16 21 24 26 20 24 28 28 32 37 43 47 53 58 62 65 65 68 72 75 75 75 76 78 77 82 81 86 90
28 26 24 25 26 25 25 23 21 21 20 15 13 11 14 18 20 24 19 19 24 23 26 34 41 47 53 59 62 65 67 69 71 73 76 74 73 74 77 78 83 83 88
35 34 30 30 27 22 23 22 17 12 8 6 5 7 12 16 18 22 20 18 23 23 26 34 40 45 51 54 57 60 63 67 70 70 72 74 73 75 73 75 80 83 85
30 28 27 31 28 23 20 17 13 10 5 3 4 7 12 17 17 21 23 21 22 23 28 34 40 46 50 53 55 57 58 60 62 65 67 69 72 71 70 71 75 80 81
24 24 23 23 21 18 14 13 10 7 3 2 5 7 12 16 18 21 25 24 24 25 30 36 42 47 49 52 52 54 56 57 59 61 63 64 67 68 67 67 71 77 79
14 16 17 17 15 12 10 10 12 10 6 5 7 8 12 17 21 25 26 27 28 29 33 38 43 45 48 49 50 52 54 55 57 58 60 62 66 66 67 65 68 72 78
Wind_Direction_500mb
179 185 185 186 197 192 187 185 176 175 180 182 181 185 199 214 239 273 264 275 286 292 294 299 304 304 306 314 318 318 311 314 312 305 308 321 327 329 330 339 336 334 335
175 175 176 172 179 187 176 171 173 168 167 175 182 196 210 241 268 287 300 303 301 301 304 305 306 307 306 313 314 314 314 316 313 314 319 327 330 332 332 330 330 328 330
167 166 163 168 171 161 163 161 159 163 166 172 191 209 227 257 281 297 303 307 309 310 311 311 312 310 308 316 315 313 314 315 317 320 321 327 330 336 327 326 326 328 329
158 160 164 156 153 153 154 155 159 166 173 185 199 222 242 265 284 298 307 310 313 319 321 313 315 314 320 322 320 317 319 318 317 323 325 326 328 328 329 330 325 327 327
154 151 144 148 151 152 156 160 162 169 174 190 203 220 257 286 298 310 316 321 324 322 316 318 322 322 323 321 321 319 320 317 320 326 326 323 326 330 334 330 326 324 324
141 141 144 148 149 153 156 159 170 175 181 191 217 279 306 317 329 338 341 339 336 325 321 329 331 317 317 318 317 322 318 310 318 323 325 327 325 329 329 329 325 324 323
139 141 144 148 151 155 160 168 173 178 190 216 266 322 340 354 358 358 359 358 352 349 348 349 347 337 331 329 335 345 341 327 324 329 326 328 325 330 328 324 323 320 314
140 143 145 149 150 155 166 170 168 164 148 84 39 35 22 19 22 15 13 14 10 5 0 352 346 345 349 359 4 352 340 341 341 333 328 324 325 325 320 320 319 317 317
140 139 141 145 147 152 151 143 123 108 95 88 69 48 39 37 30 23 17 15 17 19 8 3 19 22 17 6 356 354 345 342 341 338 330 325 328 329 326 326 332 329 328
135 131 130 133 135 133 129 121 111 105 98 87 63 54 32 27 29 32 28 27 33 45 37 23 14 18 13 359 355 352 347 349 346 344 343 345 345 344 344 346 339 332 332
127 127 130 132 135 140 138 128 122 114 102 84 62 40 25 30 32 30 29 36 42 46 45 44 39 24 14 4 355 353 353 347 351 349 352 356 359 356 355 353 350 339 329
128 124 122 122 121 123 128 139 135 127 128 110 48 29 36 42 49 48 48 52 59 51 44 34 24 10 10 356 350 356 356 0 2 3 355 0 1 2 0 359 357 351 346
123 115 113 114 127 130 137 126 121 118 121 86 43 61 68 62 67 64 60 51 39 31 31 15 357 359 360 359 5 8 7 9 8 7 5 4 6 6 4 3 4 3 356
116 108 103 106 113 115 122 125 122 116 108 95 90 84 79 72 66 61 51 49 50 45 36 31 27 29 30 25 21 17 15 14 12 8 7 4 10 11 11 9 7 3 1
115 108 102 102 104 107 104 101 103 103 95 93 91 86 77 65 56 54 49 44 45 44 33 32 31 32 26 24 24 19 16 15 14 11 8 10 11 11 13 16 11 5 5
115 108 106 104 99 96 95 96 89 91 89 83 80 78 72 69 64 46 43 49 36 34 36 33 29 28 23 19 19 18 16 15 14 12 11 12 11 10 13 16 13 9 3
122 117 109 106 101 96 92 87 84 87 93 88 78 71 67 66 62 51 46 47 38 22 34 29 27 25 19 17 17 16 15 14 13 13 12 13 10 12 15 15 13 9 5
122 115 111 110 107 104 100 90 78 76 97 85 75 66 57 57 55 50 42 45 43 28 27 25 23 21 16 15 14 13 12 13 14 13 11 12 11 11 14 13 12 11 5
123 121 117 113 109 106 102 92 80 74 94 89 84 67 51 46 47 45 34 39 38 31 20 17 17 17 13 12 12 12 10 11 12 11 12 12 10 10 13 13 10 13 8
131 129 128 123 117 113 107 103 92 83 88 88 84 73 39 16 38 41 35 33 31 26 17 9 12 12 10 8 9 10 10 9 10 11 12 10 9 10 11 10 11 10 9
130 132 131 129 126 119 113 106 100 95 93 86 81 63 26 21 32 32 31 23 24 16 8 3 7 8 7 6 6 7 9 10 8 8 9 9 7 8 10 9 10 12 9
141 138 132 122 126 125 124 120 115 114 113 97 86 56 14 10 21 25 24 15 18 10 357 357 1 4 4 4 3 3 5 7 8 6 5 6 5 8 9 7 9 12 9
134 144 142 129 123 136 130 125 125 123 114 91 71 27 9 5 6 16 16 1 5 3 348 353 355 358 1 2 2 2 3 4 4 3 3 2 4 7 7 6 8 9 8
140 141 136 141 139 137 144 147 137 126 108 46 356 6 2 357 351 359 3 354 357 354 342 348 351 355 357 359 359 0 2 2 1 1 2 0 4 4 5 6 6 9 8
163 163 161 157 158 159 164 171 185 183 192 303 321 327 344 348 349 352 355 354 354 350 344 346 349 350 354 356 355 357 358 358 359 359 359 1 3 3 4 6 5 6 8
181 184 187 189 195 196 209 219 228 235 255 279 280 297 326 337 346 347 349 351 351 347 345 348 349 347 350 351 352 353 353 354 356 358 358 0 1 4 1 4 5 5 7
Wind_Speed_850mb
69 66 63 59 47 47 42 38 38 34 27 26 25 23 23 16 10 9 11 13 17 22 27 32 34 38 38 35 35 34 42 43 52 65 62 58 51 55 56 60 64 64 59
74 65 62 56 46 44 44 42 36 36 32 33 27 25 18 13 11 12 15 19 23 30 35 39 39 41 39 35 33 39 42 47 55 59 59 55 55 57 61 68 68 67 65
74 68 56 48 51 50 48 44 39 40 36 29 25 20 14 13 14 17 20 26 33 35 37 37 35 35 35 35 38 42 47 50 53 40 54 56 59 63 74 73 77 77 79
65 60 52 53 53 51 49 47 42 35 30 25 19 13 12 13 16 21 27 32 30 30 29 27 25 30 35 39 42 49 51 48 38 40 49 57 64 70 74 83 93 91 93
65 66 70 67 63 57 50 44 37 30 22 17 14 11 10 15 22 25 24 27 28 25 23 23 26 28 34 41 48 54 45 38 42 46 51 59 65 72 76 81 86 98 100
82 82 76 69 60 53 46 38 30 23 20 14 9 8 15 18 19 21 25 27 27 28 28 24 27 30 36 42 39 38 31 33 43 49 52 55 63 63 74 81 84 90 99
84 79 72 63 55 46 38 33 26 21 14 8 4 8 14 19 21 22 23 25 30 34 32 27 24 30 33 33 28 22 18 24 29 40 50 53 60 61 78 85 84 81 83
80 72 62 54 47 40 34 26 19 13 8 5 8 15 20 19 21 21 22 23 29 31 27 26 29 29 29 25 24 22 26 31 35 40 46 49 48 63 71 78 78 78 80
70 62 52 42 38 32 27 23 19 16 18 16 17 21 22 25 25 22 19 20 20 19 19 22 22 25 27 30 32 36 39 44 44 42 36 36 52 59 62 65 63 64 73
62 52 42 35 34 33 29 27 30 25 22 17 17 25 33 33 30 29 26 25 23 25 25 24 24 22 21 30 35 42 47 48 50 46 37 45 57 58 52 49 53 56 57
53 48 43 38 35 33 34 34 30 27 18 16 19 29 37 39 38 32 28 26 24 25 25 26 25 23 21 23 31 38 39 47 46 42 43 57 66 61 55 50 46 46 51
50 50 45 40 36 28 22 29 21 22 16 15 18 27 27 28 29 32 34 30 25 22 24 23 22 21 18 22 30 32 40 48 50 55 48 62 71 68 60 59 56 50 46
52 49 41 33 26 23 23 25 22 19 17 13 16 23 28 30 26 25 23 21 20 25 20 19 20 21 22 24 32 38 50 56 58 60 62 58 66 69 67 68 63 64 58
54 47 38 36 37 35 30 24 23 21 19 22 24 28 30 32 35 29 28 27 26 25 22 23 23 27 35 40 40 49 57 60 61 60 66 55 64 75 73 74 77 75 66
49 47 45 42 40 44 45 41 35 36 29 28 31 31 31 34 36 34 29 29 31 29 24 30 36 42 51 57 54 57 61 63 64 66 67 69 68 73 78 83 82 76 73
48 44 41 42 43 41 41 46 43 39 39 41 41 34 31 26 20 22 27 21 21 25 31 43 44 46 55 62 65 64 65 66 67 68 71 74 76 72 82 86 86 82 79
43 41 38 37 38 39 39 39 43 38 35 36 36 36 36 27 23 21 26 22 19 22 37 44 46 46 52 60 65 66 68 66 65 68 71 76 80 75 80 88 89 88 86
43 37 31 34 36 35 31 34 35 34 32 33 31 29 32 27 23 21 25 22 22 31 39 44 48 45 51 58 65 67 67 68 68 71 72 76 80 81 83 87 89 90 93
41 38 34 34 31 27 26 28 30 32 30 26 23 24 24 24 20 21 23 32 32 32 36 41 46 45 50 56 63 64 66 69 69 71 73 77 80 80 84 85 87 90 91
34 31 28 27 29 27 25 27 27 27 28 24 20 21 17 19 25 26 23 27 30 30 33 40 46 47 51 56 62 64 65 70 73 73 75 76 78 78 81 86 85 92 94
37 33 28 25 24 24 22 23 23 24 25 22 19 16 16 21 24 26 20 24 28 28 32 37 43 47 53 58 62 65 65 68 72 75 75 75 76 78 77 82 81 86 90
28 26 24 25 26 25 25 23 21 21 20 15 13 11 14 18 20 24 19 19 24 23 26 34 41 47 53 59 62 65 67 69 71 73 76 74 73 74 77 78 83 83 88
35 34 30 30 27 22 23 22 17 12 8 6 5 7 12 16 18 22 20 18 23 23 26 34 40 45 51 54 57 60 63 67 70 70 72 74 73 75 73 75 80 83 85
30 28 27 31 28 23 20 17 13 10 5 3 4 7 12 17 17 21 23 21 22 23 28 34 40 46 50 53 55 57 58 60 62 65 67 69 72 71 70 71 75 80 81
24 24 23 23 21 18 14 13 10 7 3 2 5 7 12 16 18 21 25 24 24 25 30 36 42 47 49 52 52 54 56 57 59 61 63 64 67 68 67 67 71 77 79
14 16 17 17 15 12 10 10 12 10 6 5 7 8 12 17 21 25 26 27 28 29 33 38 43 45 48 49 50 52 54 55 57 58 60 62 66 66 67 65 68 72 78
Wind_Direction_850mb
179 185 185 186 197 192 187 185 176 175 180 182 181 185 199 214 239 273 264 275 286 292 294 299 304 304 306 314 318 318 311 314 312 305 308 321 327 329 330 339 336 334 335
175 175 176 172 179 187 176 171 173 168 167 175 182 196 210 241 268 287 300 303 301 301 304 305 306 307 306 313 314 314 314 316 313 314 319 327 330 332 332 330 330 328 330
167 166 163 168 171 161 163 161 159 163 166 172 191 209 227 257 281 297 303 307 309 310 311 311 312 310 308 316 315 313 314 315 317 320 321 327 330 336 327 326 326 328 329
158 160 164 156 153 153 154 155 159 166 173 185 199 222 242 265 284 298 307 310 313 319 321 313 315 314 320 322 320 317 319 318 317 323 325 326 328 328 329 330 325 327 327
154 151 144 148 151 152 156 160 162 169 174 190 203 220 257 286 298 310 316 321 324 322 316 318 322 322 323 321 321 319 320 317 320 326 326 323 326 330 334 330 326 324 324
141 141 144 148 149 153 156 159 170 175 181 191 217 279 306 317 329 338 341 339 336 325 321 329 331 317 317 318 317 322 318 310 318 323 325 327 325 329 329 329 325 324 323
139 141 144 148 151 155 160 168 173 178 190 216 266 322 340 354 358 358 359 358 352 349 348 349 347 337 331 329 335 345 341 327 324 329 326 328 325 330 328 324 323 320 314
140 143 145 149 150 155 166 170 168 164 148 84 39 35 22 19 22 15 13 14 10 5 0 352 346 345 349 359 4 352 340 341 341 333 328 324 325 325 320 320 319 317 317
140 139 141 145 147 152 151 143 123 108 95 88 69 48 39 37 30 23 17 15 17 19 8 3 19 22 17 6 356 354 345 342 341 338 330 325 328 329 326 326 332 329 328
135 131 130 133 135 133 129 121 111 105 98 87 63 54 32 27 29 32 28 27 33 45 37 23 14 18 13 359 355 352 347 349 346 344 343 345 345 344 344 346 339 332 332
127 127 130 132 135 140 138 128 122 114 102 84 62 40 25 30 32 30 29 36 42 46 45 44 39 24 14 4 355 353 353 347 351 349 352 356 359 356 355 353 350 339 329
128 124 122 122 121 123 128 139 135 127 128 110 48 29 36 42 49 48 48 52 59 51 44 34 24 10 10 356 350 356 356 0 2 3 355 0 1 2 0 359 357 351 346
123 115 113 114 127 130 137 126 121 118 121 86 43 61 68 62 67 64 60 51 39 31 31 15 357 359 360 359 5 8 7 9 8 7 5 4 6 6 4 3 4 3 356
116 108 103 106 113 115 122 125 122 116 108 95 90 84 79 72 66 61 51 49 50 45 36 31 27 29 30 25 21 17 15 14 12 8 7 4 10 11 11 9 7 3 1
115 108 102 102 104 107 104 101 103 103 95 93 91 86 77 65 56 54 49 44 45 44 33 32 31 32 26 24 24 19 16 15 14 11 8 10 11 11 13 16 11 5 5
115 108 106 104 99 96 95 96 89 91 89 83 80 78 72 69 64 46 43 49 36 34 36 33 29 28 23 19 19 18 16 15 14 12 11 12 11 10 13 16 13 9 3
122 117 109 106 101 96 92 87 84 87 93 88 78 71 67 66 62 51 46 47 38 22 34 29 27 25 19 17 17 16 15 14 13 13 12 13 10 12 15 15 13 9 5
122 115 111 110 107 104 100 90 78 76 97 85 75 66 57 57 55 50 42 45 43 28 27 25 23 21 16 15 14 13 12 13 14 13 11 12 11 11 14 13 12 11 5
123 121 117 113 109 106 102 92 80 74 94 89 84 67 51 46 47 45 34 39 38 31 20 17 17 17 13 12 12 12 10 11 12 11 12 12 10 10 13 13 10 13 8
131 129 128 123 117 113 107 103 92 83 88 88 84 73 39 16 38 41 35 33 31 26 17 9 12 12 10 8 9 10 10 9 10 11 12 10 9 10 11 10 11 10 9
130 132 131 129 126 119 113 106 100 95 93 86 81 63 26 21 32 32 31 23 24 16 8 3 7 8 7 6 6 7 9 10 8 8 9 9 7 8 10 9 10 12 9
141 138 132 122 126 125 124 120 115 114 113 97 86 56 14 10 21 25 24 15 18 10 357 357 1 4 4 4 3 3 5 7 8 6 5 6 5 8 9 7 9 12 9
134 144 142 129 123 136 130 125 125 123 114 91 71 27 9 5 6 16 16 1 5 3 348 353 355 358 1 2 2 2 3 4 4 3 3 2 4 7 7 6 8 9 8
140 141 136 141 139 137 144 147 137 126 108 46 356 6 2 357 351 359 3 354 357 354 342 348 351 355 357 359 359 0 2 2 1 1 2 0 4 4 5 6 6 9 8
163 163 161 157 158 159 164 171 185 183 192 303 321 327 344 348 349 352 355 354 354 350 344 346 349 350 354 356 355 357 358 358 359 359 359 1 3 3 4 6 5 6 8
181 184 187 189 195 196 209 219 228 235 255 279 280 297 326 337 346 347 349 351 351 347 345 348 349 347 350 351 352 353 353 354 356 358 358 0 1 4 1 4 5 5 7